Flag for French Polynesia Weather past 2 weeks in Gambier Islands, French Polynesia

Now
71 °F

Mild.


Feels Like: 72 °F
Forecast: 73 / 76 °F
Wind: 6 mph from Northwest

Location: Rikitea

Current Time: Jul 30, 2015 at 5:52:11 AM

Latest Report: Jul 30, 2015 at 5:00 AM


Visibility: N/A

Pressure: 29.72 "Hg

Humidity: 77%

Dew point: 63 °F

Location of Gambier IslandsLocation

Historic Weather in Gambier Islands — Graph

°F

Gambier Islands temperature yesterday

Maximum temperature yesterday: 75 °F (at 10:00 AM)
Minimum temperature yesterday: 69 °F (at 3:00 PM)
Average temperature yesterday: 72 °F

Past Weeks' High & Low Weather Summary

 TemperatureHumidityPressure
High78 °F (Jul 17, 1:00 PM)100% (Jul 16, 7:00 PM)30.22 "Hg (Jul 16, 7:00 PM)
Low67 °F (Jul 23, 4:00 AM)68% (Jul 24, 1:00 PM)29.72 "Hg (Jul 30, 4:00 AM)
Average72 °F91%30.05 "Hg
* Reported Jul 15 4:00 AM — Jul 30 4:00 AM, Gambier Islands, Weather by CustomWeather, © 2015

Note: Actual official high and low records may vary slightly from our data, if they occured in-between our weather recording intervals... More about our weather records

Advertising

Gambier Islands weather history for previous 24 hours

 ConditionsComfort  
Time TempWeatherWind HumidityBarometerVisibility
4:00 AM
Thu, Jul 30
71 °FMild.8 mph77%29.72 "HgN/A
3:00 AM72 °FMild.6 mph79%29.74 "HgN/A
2:00 AM71 °FMild.3 mph82%29.75 "HgN/A
1:00 AM71 °FMild.6 mph89%29.77 "HgN/A
12:00 AM72 °FMild.6 mph90%29.77 "HgN/A
11:00 PM
Wed, Jul 29
71 °FMild.3 mph95%29.77 "HgN/A
10:00 PM71 °FMild.2 mph97%29.78 "HgN/A
9:00 PM71 °FMild.3 mph100%29.79 "HgN/A
8:00 PM71 °FMild.2 mph100%29.78 "HgN/A
7:00 PM69 °FMild.12 mph100%29.77 "HgN/A
5:00 PM70 °FLight rain. Overcast.9 mph100%29.76 "Hg5 mi
4:00 PM70 °FLight rain. Overcast.9 mph100%29.73 "Hg6 mi
3:00 PM69 °FOvercast.12 mph100%29.75 "Hg6 mi
2:00 PM71 °FRain. Overcast.7 mph100%29.78 "Hg2 mi
1:00 PM74 °FLight rain. Overcast.8 mph98%29.81 "Hg5 mi
12:00 PM74 °FOvercast.16 mph95%29.80 "Hg8 mi
11:00 AM74 °FOvercast.15 mph95%29.83 "Hg8 mi
10:00 AM75 °FOvercast.13 mph94%29.83 "Hg8 mi
9:00 AM74 °FOvercast.18 mph94%29.81 "Hg8 mi
8:00 AM74 °FOvercast.20 mph94%29.78 "Hg8 mi
7:00 AM74 °FOvercast.18 mph94%29.80 "Hg9 mi
6:00 AM73 °FOvercast.16 mph93%29.78 "Hg9 mi
5:00 AM73 °FMild.17 mph94%29.83 "HgN/A
Weather by CustomWeather, © 2015

See weather overviewHow to use our weather pages